Back to catalog

STARLINK-36291

AliveCommunicationsVLEO
NORAD 67195·PAYLOAD·🇺🇸 United States

Launched Dec 17, 2025 from Vandenberg Space Force Base

Loading…

Next Passes (next 24 hours)

TLE

FreshSource: CelesTrak SupGP

Epoch: Sep 15, 2026, 03:04 UTC

1 67195C 25304D   26258.12826389 -.00041857  00000+0 -35084-2 0  2580
2 67195  70.0009  57.0164 0002702 270.4910 161.3495 14.98345682    13

Track STARLINK-36291 in real time with AllMySat

Download on the App Store